Theta_e
342 342 343 342 342 343 343 342 342 342 342 342 342 342 342 343 343 343 343 342 342 343 343 342 341 340 340 340 339 336 334 336 339 340 341 342 343 344 344 344 345 344 341 340 341 342 342 341 341 341 341 341 341 340 339 338 336 334 332 332 333 334 333 333 333 333 332 332 331 332 332 333 333 332 330 330 331 332 333 334 334 335 336 336 336
343 343 343 342 342 342 342 341 341 341 342 342 343 343 343 343 343 343 343 343 342 342 342 342 342 342 341 341 341 339 335 334 336 339 341 342 344 344 345 344 344 344 342 342 342 343 343 341 340 341 341 341 341 341 341 339 338 336 334 332 332 333 334 333 333 333 332 332 332 331 332 333 333 333 332 331 330 331 331 333 334 334 335 336 336
344 345 345 344 344 343 342 341 341 342 342 343 343 343 343 343 343 344 344 344 343 343 342 342 342 342 341 340 340 340 339 336 334 335 338 341 343 343 344 345 345 345 344 344 343 344 344 342 341 341 341 341 341 340 341 340 339 338 337 334 333 333 334 335 334 334 333 333 332 331 332 332 333 334 333 332 331 331 331 332 333 333 334 336 336
345 346 346 346 345 344 343 342 342 343 343 344 344 344 344 344 344 344 343 343 343 343 342 342 343 342 341 340 339 339 339 338 337 334 335 339 342 342 343 344 345 345 345 345 344 345 344 343 343 344 342 342 341 340 341 341 341 341 339 337 335 334 334 335 335 334 334 334 333 332 331 331 332 333 333 333 333 331 331 332 333 333 334 335 335
346 346 347 347 346 345 344 344 345 345 345 345 346 345 344 342 342 341 341 341 341 341 340 340 342 342 341 340 338 338 338 338 338 337 335 336 338 340 342 343 343 343 344 344 345 345 345 344 344 344 344 343 342 341 340 341 341 341 341 339 337 335 335 335 336 336 335 334 334 333 333 331 331 331 333 333 333 332 331 332 332 333 334 335 335
346 347 347 347 347 347 346 345 345 345 345 346 346 344 342 340 338 338 339 339 340 340 339 339 339 339 340 339 337 337 336 336 336 337 337 336 335 335 337 339 340 340 341 342 344 344 344 345 344 344 344 345 344 342 341 341 340 340 341 340 338 337 336 335 336 337 337 336 335 334 334 333 332 331 331 332 333 333 332 332 333 332 333 335 335
347 347 347 347 348 348 346 345 346 346 346 346 344 342 340 338 336 337 338 339 340 339 337 337 337 337 338 338 337 336 336 336 335 335 336 337 337 336 335 336 337 338 339 340 342 343 343 344 344 344 344 343 343 343 342 341 340 340 340 341 341 340 338 336 335 336 337 338 337 336 335 334 334 332 331 331 332 332 333 333 334 333 333 334 334
348 348 348 348 348 348 347 346 347 347 346 344 342 339 338 337 335 333 332 333 334 334 332 331 332 334 337 337 336 337 337 337 337 336 336 337 337 338 338 338 338 337 337 339 341 343 343 343 343 343 343 342 342 342 342 343 342 341 340 340 340 341 340 338 336 335 335 337 338 338 337 336 335 334 333 332 331 331 332 334 335 334 332 333 334
348 348 349 348 348 347 347 347 347 345 343 339 338 337 336 334 330 326 323 323 323 325 325 325 325 328 333 335 335 336 337 337 337 337 337 336 336 336 337 337 336 335 336 338 341 343 343 344 343 341 342 343 342 342 343 343 343 343 342 341 340 340 341 340 339 337 334 334 335 338 339 339 337 336 335 334 333 332 332 333 333 333 333 332 333
350 349 349 349 347 346 345 343 341 338 335 335 336 336 333 329 324 321 320 320 321 322 323 324 323 323 327 332 333 334 336 337 337 337 337 336 335 334 334 334 335 334 335 336 339 341 342 343 342 340 340 341 342 342 343 344 343 343 343 341 341 340 340 339 339 339 338 335 333 333 336 339 339 338 336 335 334 334 333 333 332 332 332 332 332
350 349 347 346 344 342 338 336 335 333 334 336 336 334 329 323 320 320 320 322 325 327 327 326 324 324 327 330 332 333 335 335 336 337 337 336 335 334 334 334 334 335 335 335 336 337 338 339 341 341 340 339 340 340 342 343 343 343 341 340 340 341 341 339 339 339 339 339 336 333 331 334 338 339 338 336 335 335 334 333 332 331 330 331 331
347 344 342 340 337 334 332 332 333 335 336 335 331 327 322 320 321 323 324 326 328 329 329 328 327 328 330 332 333 332 332 333 335 336 336 336 336 336 336 336 336 336 336 336 337 338 338 339 340 340 340 340 340 340 341 342 342 342 342 341 341 342 343 343 342 340 340 340 340 338 334 330 332 336 339 338 336 335 335 335 333 332 331 330 330
344 341 338 334 331 329 328 328 329 331 331 327 323 320 320 322 325 328 330 331 332 332 332 331 331 331 331 332 333 333 333 334 335 335 336 336 336 336 336 337 337 337 337 337 338 339 339 340 341 341 341 341 341 341 341 341 341 341 342 342 343 343 343 343 342 342 342 341 341 341 339 335 331 331 334 337 338 336 336 335 334 333 332 331 331
341 339 336 332 329 328 326 326 327 326 324 321 320 321 323 327 329 332 333 334 334 334 333 333 332 332 331 330 331 333 334 333 335 336 335 334 334 334 335 336 336 336 336 336 337 338 338 339 340 341 341 341 341 341 341 341 340 340 338 340 342 342 342 342 341 342 343 342 341 340 341 340 337 333 331 332 335 336 337 336 335 334 333 332 332
339 337 333 331 329 329 329 329 327 324 321 321 322 325 328 330 331 333 334 333 333 333 333 332 332 332 331 329 330 331 332 333 335 334 333 333 334 334 334 334 334 335 335 335 335 336 336 337 337 338 339 339 340 340 340 340 339 338 337 338 339 340 341 341 341 342 342 342 341 340 340 340 340 339 336 332 331 333 335 336 336 335 334 333 333
338 334 332 331 331 332 331 329 326 323 323 324 326 328 330 331 332 333 333 333 333 333 332 331 331 331 331 330 331 331 333 333 332 332 333 334 334 333 333 332 333 333 334 334 334 334 334 334 334 334 335 336 337 338 339 339 339 338 338 338 338 339 340 340 340 341 342 342 342 342 341 340 340 340 340 339 335 333 333 333 335 335 335 334 333
336 333 332 332 332 331 328 326 325 325 326 326 327 328 329 330 332 333 333 332 331 331 331 331 331 331 331 331 332 333 333 332 330 333 334 333 332 332 331 331 331 331 332 332 332 331 331 331 331 331 332 333 334 335 336 337 338 338 338 338 338 339 339 339 340 341 341 342 343 344 343 342 342 341 341 341 340 338 336 333 333 334 334 334 334
334 333 333 332 329 325 323 323 324 326 328 327 326 327 329 330 331 332 331 330 330 330 331 331 331 331 331 332 332 332 332 332 332 333 332 330 331 331 330 330 329 329 329 329 328 327 327 327 328 329 330 331 332 333 334 334 335 336 337 338 338 339 339 339 340 341 341 343 343 344 344 344 343 343 342 341 341 341 340 338 336 334 332 332 332
333 333 332 329 324 320 320 322 324 326 327 327 326 327 329 331 331 331 330 330 330 330 330 331 331 331 331 331 331 331 331 332 332 332 331 329 329 329 328 328 327 327 325 323 322 321 321 322 323 325 327 328 329 330 331 331 332 333 334 336 337 338 338 339 340 340 341 342 343 343 343 342 342 343 343 342 342 342 341 340 339 338 335 333 331
333 332 329 323 319 319 320 322 324 325 326 326 325 326 329 331 331 330 330 330 330 329 328 329 329 330 330 330 331 331 331 331 331 331 331 329 327 327 328 326 323 322 320 318 317 317 317 318 319 321 322 323 324 325 327 328 330 331 332 333 334 336 337 337 338 340 341 342 343 343 342 341 342 342 342 342 342 342 342 341 339 340 339 337 334
329 327 323 319 318 319 321 323 325 325 325 325 325 326 328 329 330 330 330 330 329 328 327 327 328 329 330 330 330 329 330 330 329 329 329 328 326 326 326 325 323 321 318 317 317 317 317 317 318 318 319 319 320 321 322 324 325 327 329 331 332 334 336 337 338 339 341 342 342 343 342 342 342 342 342 342 342 343 344 343 341 340 340 340 338
323 321 318 317 317 319 321 324 326 326 325 326 326 326 326 327 329 330 330 330 329 328 328 327 328 329 329 329 328 328 328 328 328 328 327 327 325 325 325 324 323 321 318 317 316 316 316 316 316 316 316 317 318 318 319 320 321 322 324 327 328 330 332 334 337 339 340 341 342 342 342 343 343 343 342 342 342 342 343 344 344 341 339 340 341
319 317 316 316 317 319 322 325 326 326 326 326 325 326 326 327 329 330 330 329 329 328 328 328 328 328 328 327 326 327 327 327 327 326 326 325 325 324 324 324 322 321 319 317 316 315 315 315 315 315 314 315 315 316 316 317 318 320 320 322 323 326 328 330 333 336 338 340 341 342 343 343 344 344 343 343 343 342 342 343 344 343 341 340 341
316 316 316 316 317 319 323 325 325 325 325 325 325 325 325 326 328 329 329 328 328 327 327 327 327 328 327 326 326 326 327 327 326 326 325 325 325 325 324 322 322 321 319 318 317 316 315 316 315 315 315 315 314 314 315 315 317 318 319 320 320 321 323 325 327 331 334 337 339 341 342 343 344 344 343 343 343 343 342 342 343 343 342 340 340
316 316 317 317 317 320 324 325 325 325 325 324 324 324 324 327 328 328 328 327 327 326 326 326 326 327 326 326 326 326 327 327 326 326 325 325 325 325 323 321 320 321 320 319 318 317 317 317 317 317 317 317 316 316 315 315 316 317 317 318 319 319 320 321 323 325 329 333 336 338 339 342 343 343 343 343 342 343 343 342 342 341 341 341 341
316 316 317 317 317 320 324 325 325 325 324 324 323 323 324 326 328 328 327 326 326 326 325 326 326 326 326 326 326 326 326 326 326 326 325 325 325 324 321 320 320 320 320 320 319 318 318 318 318 318 318 319 319 318 316 316 315 316 316 317 317 318 319 320 320 321 324 327 331 334 336 338 340 342 342 342 342 342 342 342 342 342 341 341 341
316 317 317 317 317 320 323 325 325 324 324 324 323 323 323 324 326 326 326 325 325 325 325 326 326 326 326 326 326 326 326 326 326 326 325 324 325 323 321 319 319 319 320 320 320 320 319 319 319 319 319 320 320 319 317 316 316 316 316 317 317 317 318 318 320 321 321 323 326 330 333 335 337 338 340 341 341 342 342 342 342 342 342 341 341
316 316 316 316 317 320 323 324 324 323 323 323 323 323 323 323 324 324 324 324 325 325 326 325 326 326 326 326 326 326 326 325 325 326 326 325 324 323 321 319 318 318 318 319 320 320 320 319 319 319 320 321 321 320 318 316 316 316 315 316 317 317 318 318 319 320 321 321 322 325 329 333 335 336 337 338 339 341 341 342 342 342 342 342 341
316 316 316 316 318 320 322 323 322 322 322 321 321 321 321 322 323 323 324 325 324 325 325 325 326 327 327 327 326 326 326 325 325 326 326 326 325 324 322 319 318 318 317 318 318 319 320 319 319 320 320 321 321 320 318 317 316 316 316 316 317 317 318 319 319 319 320 321 321 322 324 328 333 335 336 336 337 338 340 341 342 342 342 341 341
317 317 317 317 318 320 321 322 323 322 320 319 319 320 320 321 322 322 323 325 325 325 325 326 326 327 327 327 326 326 326 326 326 327 327 327 326 326 324 321 319 318 317 317 318 319 320 320 320 321 321 322 322 321 318 317 317 316 316 317 317 317 318 320 320 320 320 321 322 322 323 324 328 332 336 336 336 337 338 339 340 341 341 341 341
317 317 318 319 319 319 321 324 324 322 321 322 324 324 325 325 325 325 324 325 325 326 326 326 327 327 327 326 326 326 327 328 328 329 329 329 328 327 326 325 323 322 321 321 322 322 322 323 322 322 322 323 323 321 319 318 318 317 317 317 317 317 317 319 321 322 321 322 323 324 324 323 324 328 333 336 337 336 336 337 338 339 340 341 341
317 318 320 321 321 321 324 326 326 324 325 326 327 327 327 328 328 328 327 326 326 326 327 328 328 328 327 327 325 325 325 326 326 327 328 328 329 329 328 328 327 326 325 326 326 325 324 325 324 323 324 324 324 322 320 318 318 317 317 317 317 317 316 317 319 321 322 323 324 325 325 325 324 325 328 334 337 337 337 336 337 336 337 338 339
318 318 321 322 322 325 327 327 327 327 328 327 328 328 328 328 329 329 329 328 327 326 326 327 329 329 329 327 325 324 324 324 323 323 324 326 328 329 329 329 329 328 328 327 328 327 326 326 326 325 325 324 323 322 320 318 318 318 317 317 317 317 317 317 317 318 320 322 324 325 326 326 326 325 325 329 335 338 338 337 337 336 336 336 336
318 319 321 323 324 327 327 327 328 328 328 328 328 328 328 329 329 330 330 329 328 326 325 325 327 329 329 327 325 324 324 323 322 321 321 322 325 327 329 329 328 328 328 328 328 328 327 327 326 325 324 324 323 322 321 319 318 318 317 317 317 317 317 317 317 317 317 319 321 322 324 325 326 326 325 326 331 336 338 338 338 338 336 335 334
318 319 322 324 326 327 327 327 327 327 327 328 328 328 328 328 329 329 330 330 329 328 326 325 327 328 328 326 325 324 323 322 320 320 320 320 321 323 325 326 327 327 327 328 328 328 328 327 326 325 324 323 323 322 321 319 319 318 317 317 317 317 318 318 318 318 317 317 318 319 321 323 325 327 326 326 328 333 337 339 338 338 338 336 335
318 319 323 325 327 327 327 326 327 326 327 327 328 328 328 328 328 328 329 329 329 329 327 326 327 328 327 326 325 324 323 321 320 320 320 320 319 320 321 322 324 326 327 328 328 328 327 326 325 324 324 323 323 322 321 319 319 319 318 317 317 318 318 318 318 318 318 317 317 317 318 320 323 325 327 327 327 329 334 337 338 338 338 338 337
318 320 323 325 326 326 325 325 326 326 327 328 328 328 328 329 328 328 328 328 328 328 327 327 327 327 327 327 326 325 323 323 321 320 320 321 320 320 320 320 322 325 327 327 327 326 325 324 323 322 323 323 323 321 319 319 320 320 319 318 317 318 318 318 319 318 318 318 317 318 318 318 320 323 326 327 328 329 331 334 337 338 337 338 338
319 321 323 324 324 324 323 324 326 327 328 328 328 328 329 329 329 328 327 327 327 327 327 327 327 328 328 328 326 325 324 323 321 320 321 321 321 320 320 320 322 324 325 324 324 323 323 323 323 322 322 323 323 320 318 319 321 321 319 318 318 318 318 318 319 319 318 318 317 317 318 318 319 321 324 327 328 329 330 331 334 336 337 338 339
319 321 322 321 321 321 322 323 326 327 327 327 327 328 328 329 328 327 325 324 325 325 325 326 328 329 328 327 326 325 325 324 322 321 321 321 321 320 320 321 321 322 322 321 322 322 322 322 322 322 323 323 322 319 318 319 321 321 320 318 318 318 318 318 319 319 318 317 317 317 317 318 318 319 322 325 327 329 330 330 332 334 336 338 339
319 320 321 321 320 321 322 323 325 325 325 325 326 327 328 328 326 324 323 322 323 323 324 326 327 328 328 327 325 325 326 325 324 323 322 321 321 320 320 320 320 321 320 319 320 321 321 322 322 322 322 321 320 319 320 320 321 322 321 319 319 319 318 318 319 320 318 317 317 317 317 317 318 318 320 322 326 328 330 330 331 332 334 337 339
320 320 320 321 320 321 322 323 323 324 323 323 324 325 326 326 324 323 322 322 322 322 324 326 326 326 326 325 325 325 326 327 326 325 324 322 321 321 320 320 320 319 319 318 319 319 320 321 320 320 320 320 320 320 321 321 321 322 322 321 320 319 319 319 320 319 317 316 316 316 316 316 317 317 319 320 323 326 329 331 331 331 332 334 338
320 320 321 321 321 321 321 322 322 322 322 322 323 324 324 324 323 323 323 322 322 322 323 324 325 325 325 325 326 326 327 327 327 327 326 324 322 321 321 320 320 319 319 319 318 318 319 320 319 319 320 321 319 320 320 321 321 322 322 322 321 320 320 320 320 319 317 316 316 316 316 317 317 317 319 319 320 323 327 331 332 331 331 332 336
320 320 321 321 321 321 321 321 321 321 322 322 322 323 323 323 323 323 324 324 324 324 324 324 324 325 326 326 326 326 326 327 327 327 326 325 323 321 321 321 321 320 320 319 319 319 319 320 320 320 321 320 319 319 320 320 321 322 323 322 322 321 320 320 319 318 317 316 316 316 316 317 318 318 319 319 320 320 323 329 332 332 331 331 333
320 320 321 322 321 321 321 321 321 321 321 322 322 323 323 323 323 324 324 325 326 325 325 325 325 326 327 327 327 326 326 326 327 327 326 325 324 322 321 321 321 321 321 320 320 319 319 320 320 320 319 319 319 320 320 320 322 323 323 323 322 322 321 320 319 318 316 316 316 316 316 316 317 319 319 320 320 320 321 325 330 332 332 331 332
321 320 321 322 321 321 322 321 321 321 321 322 323 323 323 323 324 326 326 327 327 326 326 326 326 327 327 327 327 325 324 325 326 326 326 326 324 323 321 321 321 322 321 321 320 320 319 320 320 318 318 320 321 321 320 321 322 322 322 323 323 322 321 320 319 317 317 317 316 316 317 316 317 318 319 320 320 320 321 323 327 331 332 332 331
321 320 321 321 321 322 322 321 321 321 321 322 323 324 323 323 325 327 328 328 328 328 327 326 327 327 327 327 327 325 323 324 324 325 325 325 324 322 320 320 320 321 321 321 321 321 319 319 318 319 319 321 322 322 320 321 321 322 322 323 323 322 321 319 317 317 317 317 316 317 317 317 317 319 320 320 320 321 321 322 325 329 332 332 332
320 321 321 321 322 322 322 322 321 321 321 322 323 324 324 325 326 327 328 328 328 328 327 326 327 327 327 327 326 325 323 323 323 324 325 324 322 320 320 320 320 320 321 321 321 321 320 318 318 320 321 322 322 321 320 320 321 321 322 323 323 321 319 317 317 317 317 317 316 317 317 317 317 319 320 320 320 321 321 322 323 327 331 332 332
320 321 320 321 322 322 323 322 322 322 321 321 323 323 325 326 327 327 326 326 327 327 327 327 328 328 328 327 326 325 324 323 323 324 324 322 320 320 319 319 319 320 320 320 321 321 320 319 319 322 322 322 321 320 320 320 321 321 322 322 322 320 317 316 317 317 317 317 316 316 318 318 318 319 320 320 320 321 321 322 323 325 329 332 333
321 321 322 323 324 326 327 327 327 326 324 322 323 324 325 327 328 328 327 326 326 327 327 327 328 328 328 327 327 326 324 323 324 324 323 322 321 319 318 318 318 319 320 320 321 321 320 319 321 322 322 321 320 320 320 320 320 321 321 320 320 318 316 316 317 317 317 318 317 316 317 318 318 319 320 320 320 321 321 322 323 324 327 331 333
323 324 326 327 329 331 331 330 330 329 326 324 324 325 326 327 328 329 330 329 328 328 328 328 328 328 327 326 326 325 324 324 324 324 323 322 320 318 316 317 318 318 319 320 321 320 320 320 322 322 321 319 320 320 320 320 320 320 320 320 319 317 316 316 317 317 318 318 316 316 317 318 319 319 320 320 321 321 322 322 323 324 326 330 333
327 327 329 330 332 333 333 332 331 330 329 327 327 327 328 328 328 329 330 331 330 329 329 329 329 328 326 325 324 324 324 325 325 324 323 320 318 317 316 317 317 318 320 320 321 320 320 321 322 321 319 319 319 320 320 319 319 320 321 320 319 317 316 317 317 317 317 317 315 316 317 318 319 319 320 320 321 322 322 322 323 324 325 328 332
Wind_Speed
7 7 8 7 6 7 7 6 6 6 7 7 7 8 8 9 10 10 11 11 9 9 9 9 9 10 10 9 9 8 8 8 8 8 8 8 8 6 6 6 7 9 8 8 10 10 10 10 12 15 17 17 17 17 16 14 13 13 15 16 17 16 16 15 15 15 15 14 14 14 14 13 13 12 12 12 11 10 10 10 9 9 8 8 7
7 7 7 7 7 7 7 7 7 7 7 7 8 9 9 9 10 10 10 11 11 10 10 9 10 11 11 11 11 10 9 9 9 9 8 9 8 7 6 6 6 9 9 8 10 10 10 11 13 15 16 17 17 18 17 16 15 14 14 15 17 17 17 16 16 15 15 15 15 15 15 15 14 14 13 13 12 11 11 11 10 10 9 9 8
8 8 8 8 8 8 8 7 7 8 9 8 9 10 11 11 10 9 9 10 11 12 12 11 11 11 12 12 12 12 11 10 10 10 9 9 9 9 8 7 7 8 9 9 9 10 10 11 13 14 15 16 17 17 18 18 16 15 14 15 16 18 18 17 16 16 15 15 16 16 16 16 16 15 15 14 13 12 12 12 11 11 11 10 9
8 9 10 10 10 10 9 8 7 9 11 11 11 11 12 12 11 10 10 11 11 11 13 13 11 11 12 13 13 13 13 13 12 11 11 10 10 10 9 8 7 8 9 10 9 10 10 11 12 14 15 16 17 16 17 18 18 17 16 15 15 17 18 18 17 16 16 16 16 16 16 17 17 17 16 16 15 14 13 13 12 12 12 11 10
10 10 11 11 11 11 10 9 9 10 13 12 12 12 11 11 11 12 12 12 11 11 12 12 12 12 12 12 12 13 14 14 13 13 12 12 11 11 10 9 9 9 10 10 10 10 11 12 13 14 15 16 17 16 17 17 18 18 17 17 16 16 17 19 18 18 17 16 16 16 16 17 17 17 17 17 16 15 14 14 13 13 13 12 11
11 11 12 12 11 11 11 11 11 12 14 13 11 11 10 10 12 13 13 13 12 11 11 11 11 11 11 11 11 12 13 13 13 14 14 14 13 13 12 11 12 12 12 11 11 11 11 12 14 15 15 16 17 17 17 17 17 18 19 19 18 16 16 18 19 19 19 18 17 17 17 17 17 17 17 18 17 17 16 15 15 14 14 13 13
10 10 11 12 12 13 12 13 13 12 14 14 11 11 11 12 13 13 13 13 12 11 11 11 11 10 11 12 12 12 13 13 13 13 14 15 15 14 14 13 13 14 14 13 12 11 11 12 13 14 15 16 16 16 17 17 17 18 19 21 20 18 17 17 18 19 20 20 19 18 18 18 17 18 18 18 18 17 17 17 16 16 15 15 14
10 10 10 12 13 14 13 13 13 12 13 13 11 12 13 13 13 14 15 15 14 13 13 13 13 12 11 11 12 13 13 13 13 12 13 13 14 14 14 14 14 14 14 14 13 12 11 12 13 14 14 14 15 16 16 16 17 18 19 21 20 19 20 19 18 18 20 21 21 21 20 19 18 18 19 18 18 18 18 18 17 17 17 16 15
10 10 11 12 14 14 14 13 12 12 13 12 12 13 13 13 14 16 17 17 17 16 15 15 14 13 12 11 11 12 12 12 12 12 12 13 13 13 14 14 14 14 13 14 14 13 12 12 14 15 14 12 14 15 15 15 17 18 19 21 20 20 21 22 20 18 18 20 22 23 22 21 20 19 20 20 19 19 19 19 19 18 18 17 17
10 11 12 13 14 14 14 12 12 13 14 13 12 12 13 15 17 17 17 16 15 15 15 16 15 15 13 12 12 11 11 11 11 12 12 12 12 12 13 14 14 14 13 13 14 15 14 14 15 16 16 13 13 15 14 13 15 16 17 19 20 20 20 21 22 20 19 20 21 23 24 23 23 21 21 21 21 21 20 20 20 20 19 19 18
12 12 12 12 12 12 12 12 12 12 12 11 10 12 15 18 17 15 13 13 13 13 14 15 15 13 12 12 12 11 10 10 10 10 11 10 10 10 11 12 13 14 14 14 14 15 15 15 16 17 18 17 16 17 16 13 13 15 15 17 18 19 19 19 21 21 21 21 20 21 23 24 25 23 23 22 22 22 21 21 21 21 20 20 19
12 11 11 11 11 11 10 10 10 11 10 11 13 16 16 15 13 11 10 10 11 12 13 13 12 12 12 11 11 11 10 9 9 9 10 10 9 8 8 9 11 12 13 13 14 14 14 14 14 16 18 19 19 19 19 16 16 17 16 16 18 19 20 21 22 21 22 23 23 21 21 23 24 25 25 24 23 23 23 22 22 22 21 21 21
11 11 11 11 11 10 10 10 11 11 13 14 15 14 12 10 8 8 9 9 10 11 11 12 11 11 10 9 9 9 8 7 7 7 7 8 8 8 8 8 9 10 11 12 12 13 12 12 12 13 15 17 19 20 20 19 19 19 17 18 19 18 19 21 23 23 22 23 25 25 23 22 23 24 25 25 25 24 24 24 23 23 22 22 22
12 12 12 12 11 11 12 12 12 13 13 13 11 9 7 6 6 7 8 8 8 9 9 10 10 10 10 8 6 5 5 6 4 4 5 7 8 9 8 8 8 8 10 11 12 12 12 13 12 12 12 14 15 17 18 19 20 21 20 20 19 18 19 20 21 22 24 24 25 26 27 26 24 23 24 25 26 26 26 26 25 24 23 23 23
13 13 13 12 12 13 13 13 13 13 12 9 7 6 6 6 6 6 7 7 7 7 7 8 9 10 10 9 8 6 4 3 2 5 7 7 6 7 8 9 9 9 9 10 11 11 12 12 13 13 13 13 14 14 15 16 18 20 21 21 20 20 21 21 21 21 23 25 25 26 27 28 27 26 24 24 25 26 27 27 26 26 25 25 24
15 14 13 13 14 14 14 14 13 11 8 6 6 5 6 5 5 5 5 6 6 6 6 7 7 8 8 9 9 7 4 4 7 7 5 4 5 7 8 9 9 10 10 10 10 11 11 12 13 13 14 14 14 14 14 14 15 17 20 21 21 22 22 23 23 22 22 24 26 26 27 27 27 27 27 26 24 24 25 26 27 27 27 27 26
15 14 14 14 14 14 13 12 10 8 6 5 5 5 5 6 5 5 5 5 6 6 5 5 6 6 7 7 6 6 6 9 11 7 3 6 7 7 8 9 9 9 10 10 10 10 11 11 12 12 13 14 14 14 14 14 14 15 18 20 21 23 24 24 24 24 23 24 25 26 26 27 27 27 28 28 27 25 24 24 25 27 28 28 28
15 14 14 14 14 13 12 10 8 7 6 5 6 6 6 6 5 5 5 5 6 6 5 5 5 5 5 5 5 6 9 11 10 7 7 8 6 6 8 9 9 9 9 9 9 9 10 10 10 11 12 13 13 14 14 15 16 16 17 19 20 21 22 23 24 24 24 24 24 25 25 27 27 27 27 28 29 29 27 25 25 25 27 28 28
14 14 14 14 14 13 11 10 8 7 6 6 6 6 5 5 5 5 5 5 5 5 5 5 5 5 5 5 5 6 8 9 9 10 10 8 6 7 8 7 7 7 7 8 9 9 9 9 9 9 10 12 13 13 14 15 16 17 19 20 21 22 23 23 22 22 24 24 24 24 25 26 27 27 27 27 29 30 30 29 28 26 26 26 27
14 14 15 14 13 12 11 10 9 7 6 6 6 6 5 5 5 6 6 5 5 5 6 6 6 6 5 5 5 6 6 7 8 8 9 11 10 7 6 5 4 5 8 9 10 9 9 9 8 8 9 10 12 13 13 14 15 16 18 20 21 22 23 24 22 21 22 23 24 25 26 27 28 28 28 28 28 28 29 30 30 29 27 27 27
15 15 15 13 12 11 11 9 8 7 6 6 6 6 5 6 6 6 6 5 6 6 7 7 7 6 6 5 5 6 6 6 7 7 8 11 11 9 8 4 2 5 8 9 9 9 9 9 9 9 9 9 10 11 12 14 15 16 17 18 19 20 21 22 23 21 21 22 24 26 28 28 28 28 29 28 28 28 28 29 30 30 29 29 28
16 15 14 12 11 11 10 9 7 6 6 6 6 6 7 8 7 6 6 6 6 7 7 7 7 6 6 6 5 5 6 6 6 6 6 8 10 10 11 9 7 7 8 8 8 8 9 10 10 11 12 13 13 12 12 13 13 15 17 18 20 20 20 21 22 22 22 22 23 26 27 28 28 29 29 29 28 28 29 29 29 30 31 31 30
16 15 13 12 11 11 9 8 7 6 6 7 7 7 8 8 8 7 7 7 7 7 7 7 7 7 6 6 6 5 6 6 6 6 7 7 9 10 10 11 11 10 9 8 8 8 9 10 11 12 13 15 16 16 17 17 16 16 16 17 19 21 22 22 22 22 23 23 24 25 26 27 28 29 30 30 29 28 29 30 31 31 32 33 32
15 14 14 13 11 10 9 8 8 7 7 7 7 8 8 9 9 8 8 8 7 7 7 7 7 7 7 7 7 7 6 7 8 8 8 9 10 11 10 11 13 12 11 9 8 9 9 10 12 14 15 17 17 18 19 20 20 19 19 18 18 20 22 23 23 23 24 25 26 27 27 27 28 30 30 30 30 29 30 32 32 32 32 33 33
15 14 13 12 10 10 10 9 8 8 8 7 8 8 9 9 9 9 8 8 8 8 8 8 7 7 8 8 8 8 8 8 9 9 10 11 12 11 10 11 13 14 14 13 12 11 11 11 13 15 16 18 20 20 20 21 21 21 22 21 21 20 21 22 24 25 25 26 27 28 29 30 30 31 31 32 32 31 32 32 33 32 33 33 33
14 13 12 12 11 11 10 10 9 9 8 8 8 9 9 10 10 10 9 9 9 9 9 9 8 8 8 8 9 9 9 10 11 10 11 12 13 13 13 13 13 14 15 16 15 15 14 14 14 15 17 19 21 22 21 21 22 23 23 24 24 23 23 22 23 25 26 27 29 30 31 32 32 33 33 33 33 33 34 34 33 33 33 33 32
13 13 12 12 12 11 11 10 10 9 9 9 9 9 10 10 11 11 10 10 10 10 10 9 9 9 9 10 10 10 10 11 12 11 12 12 13 14 15 15 15 16 16 17 17 17 18 18 17 16 18 20 22 24 23 22 22 24 25 26 27 26 26 25 23 23 25 27 29 31 32 32 34 35 35 35 34 34 35 35 35 34 33 33 33
14 13 13 12 12 11 11 10 10 10 10 11 10 10 10 11 11 12 11 11 11 10 10 10 10 11 11 11 12 11 11 12 13 12 12 13 14 15 16 17 17 18 18 19 20 20 20 21 21 19 19 22 24 24 24 22 22 25 26 28 30 30 28 27 25 24 24 25 28 31 33 33 34 35 37 37 37 36 36 36 37 35 34 33 33
15 13 12 12 11 11 11 10 11 11 11 11 10 9 10 10 10 11 11 11 11 11 11 11 11 11 13 13 14 13 13 13 13 13 13 14 15 16 17 17 18 19 19 20 21 22 22 23 24 23 22 24 26 26 24 23 23 25 27 28 30 32 31 29 27 26 24 24 26 29 32 34 35 35 36 37 39 39 38 37 37 37 36 35 34
14 13 12 12 11 11 11 10 10 10 9 8 7 7 7 7 7 8 9 10 11 11 11 12 12 13 14 14 15 15 14 14 15 15 16 16 16 17 18 19 20 20 20 22 24 25 24 24 26 27 27 26 27 27 26 23 23 24 27 29 31 32 33 30 28 27 25 25 25 27 30 33 35 36 36 37 38 39 40 39 38 38 38 37 36
14 13 12 11 11 12 11 10 9 8 7 6 5 4 4 5 5 6 7 9 11 12 12 13 13 14 15 15 16 16 15 15 16 16 17 18 18 18 18 20 21 22 23 24 27 29 27 27 28 29 30 30 29 27 26 24 23 24 26 28 30 32 32 30 28 27 26 25 25 26 28 31 34 36 37 37 37 38 39 40 40 40 39 38 37
14 12 11 11 13 13 11 10 9 8 8 7 6 6 6 6 6 7 7 8 10 11 12 13 14 16 17 17 17 16 16 16 17 18 19 19 19 20 20 20 21 22 24 25 29 32 30 29 30 30 30 32 30 27 27 26 23 24 25 27 29 30 31 30 28 27 26 26 26 26 27 29 33 36 37 38 38 38 38 40 40 41 41 39 38
14 12 11 12 14 13 11 11 10 10 10 9 8 8 9 9 9 9 10 10 11 11 11 13 15 16 17 17 17 16 16 17 17 18 19 20 20 21 21 22 22 22 23 25 29 33 33 30 30 31 31 31 31 28 28 27 25 24 25 26 28 29 30 31 30 28 26 26 27 28 28 28 30 35 37 39 39 39 38 39 39 40 41 41 40
14 13 12 13 14 13 12 12 11 11 11 11 11 11 12 12 12 12 12 13 13 13 13 13 14 15 16 17 17 16 16 16 17 17 19 20 21 22 22 23 24 24 23 25 28 32 34 33 32 32 31 31 31 29 29 29 26 25 26 27 28 29 30 32 32 31 29 27 26 27 28 29 29 32 36 39 40 40 39 39 39 39 41 42 41
14 14 13 14 14 14 14 13 13 12 12 12 12 13 14 14 14 14 14 15 15 15 15 14 13 14 16 17 17 16 16 16 17 17 18 19 20 22 23 24 25 25 24 25 27 30 33 34 33 33 32 32 32 30 29 30 28 26 27 28 29 30 30 32 34 35 34 32 30 28 27 28 29 31 34 37 39 40 40 39 39 39 39 41 42
15 15 15 15 15 15 15 15 14 14 14 14 14 15 15 15 16 16 16 16 17 17 17 16 14 14 15 16 16 16 16 17 17 17 17 18 19 20 22 23 24 26 25 25 26 28 31 34 35 34 33 33 33 31 30 30 29 28 28 29 30 31 32 33 35 37 37 37 36 32 28 27 28 30 32 35 38 40 41 40 39 39 39 40 41
15 15 16 16 16 16 16 15 14 15 15 16 16 16 16 17 17 17 17 18 17 18 18 17 16 16 16 17 17 16 16 17 17 17 17 18 19 20 21 22 23 25 25 26 27 28 31 34 36 35 33 33 33 32 30 30 30 30 30 30 31 33 34 34 36 38 40 41 40 36 31 28 27 27 30 34 37 38 40 41 40 39 38 39 40
16 16 16 16 16 16 15 15 15 15 16 16 17 17 17 18 18 18 18 18 18 18 18 17 17 16 17 17 17 16 17 18 17 17 17 18 19 20 21 22 23 24 26 27 28 29 30 32 34 35 34 33 33 33 30 29 31 32 32 34 34 35 36 37 39 40 42 43 42 39 36 31 28 26 28 31 35 37 39 40 41 40 38 38 39
16 16 14 15 16 16 16 16 16 16 16 16 17 17 18 19 19 19 18 17 17 18 17 17 17 17 17 17 17 17 17 18 18 18 18 18 19 20 21 22 23 24 26 27 27 28 29 30 31 33 33 32 33 33 31 30 30 31 32 35 37 38 37 39 40 42 43 44 43 41 39 36 32 28 26 28 32 35 37 39 41 41 39 38 38
17 16 14 15 17 17 17 18 17 17 17 17 18 18 19 19 19 19 18 17 17 17 17 18 18 17 17 17 18 18 18 18 19 19 19 20 20 20 21 22 23 25 26 26 27 27 27 28 29 30 31 32 33 33 32 31 31 31 31 34 38 40 40 41 41 41 43 44 44 43 42 41 39 34 30 27 28 32 36 37 39 41 41 39 38
17 18 17 17 19 19 19 19 18 18 18 19 19 19 19 19 19 19 18 18 18 17 18 18 17 17 16 17 17 18 19 20 20 21 21 21 21 21 22 22 23 25 25 26 26 26 26 26 27 29 31 33 34 34 33 33 32 32 32 34 38 40 41 42 42 40 41 43 44 46 46 45 44 41 36 32 28 29 33 36 38 40 41 41 39
18 20 20 20 21 21 21 20 19 19 19 19 19 19 19 19 19 18 18 18 18 17 17 17 16 15 15 16 17 18 20 21 22 23 22 21 22 23 23 24 24 25 25 26 26 26 26 25 27 29 30 32 35 35 35 35 34 33 33 34 37 39 41 43 43 40 39 41 45 48 49 47 44 43 40 35 31 29 31 34 36 38 41 41 41
22 23 22 23 22 22 21 21 21 21 20 20 19 20 20 20 19 19 18 17 17 17 17 16 16 15 16 17 18 19 20 22 23 24 23 22 23 23 25 25 25 25 26 26 26 26 26 27 27 28 30 33 35 35 35 35 34 33 34 34 36 38 39 41 43 42 40 41 45 49 51 48 44 43 42 37 33 30 30 33 34 36 39 41 42
26 25 24 24 24 23 22 22 22 22 22 21 21 21 21 20 20 20 19 18 18 19 18 17 17 17 17 18 19 19 21 22 24 25 24 23 23 24 25 26 27 27 26 26 26 26 27 28 28 30 32 34 35 34 34 35 35 35 35 35 35 36 37 39 42 43 42 42 46 50 52 50 46 43 43 40 35 32 30 32 34 35 37 40 42
27 27 27 26 25 24 23 22 22 22 23 22 22 22 22 21 20 20 20 19 20 21 20 19 19 19 20 20 20 20 21 22 23 25 24 24 23 24 26 27 28 28 27 27 26 26 27 28 29 31 32 32 33 33 32 34 36 37 36 35 34 35 37 38 40 43 43 43 47 50 51 51 47 44 45 41 36 33 31 31 34 36 36 38 41
29 30 29 28 28 26 24 23 22 23 23 23 24 24 22 21 20 21 21 21 21 22 22 21 21 21 21 21 20 21 21 21 22 23 23 23 24 25 25 26 27 28 29 28 27 27 27 27 29 31 31 31 32 32 31 32 34 36 34 32 32 34 37 38 40 42 43 44 47 47 49 50 48 45 46 43 38 36 33 30 32 35 37 37 40
31 31 30 30 28 27 25 23 23 23 24 24 25 25 23 21 21 22 22 22 22 22 22 23 23 23 22 21 21 21 21 21 21 21 21 23 24 25 25 25 26 27 28 29 28 27 27 27 28 30 30 29 30 31 31 31 33 34 32 30 31 34 37 38 40 43 44 45 45 44 47 50 47 44 47 44 39 38 35 32 31 35 37 37 38
32 31 31 30 28 26 25 24 24 24 25 25 25 26 25 23 22 23 24 24 24 24 23 24 24 24 23 22 21 21 21 21 19 19 21 22 23 25 26 26 26 26 27 27 27 27 28 27 28 28 28 29 29 30 30 30 32 33 31 31 32 33 35 38 41 44 47 47 45 43 46 49 46 44 46 44 40 39 37 33 31 33 37 37 37
33 32 31 29 27 25 25 25 26 26 26 25 25 26 25 24 24 24 24 26 27 27 26 25 25 25 24 22 21 22 22 21 19 19 21 22 24 26 27 26 26 27 26 25 25 26 27 27 26 26 27 28 29 30 29 29 30 31 30 32 33 32 34 38 42 46 48 49 49 45 44 46 45 44 46 45 41 39 37 35 32 32 36 38 37
33 32 31 29 26 25 25 25 25 27 28 26 26 26 25 24 25 25 26 28 29 30 29 28 28 28 24 21 20 22 21 20 20 20 21 23 25 26 26 26 26 27 25 24 25 26 26 26 25 25 26 27 28 29 28 28 29 29 29 31 33 33 35 38 42 47 48 50 51 47 41 43 45 44 45 45 42 40 36 34 32 31 35 37 37
31 31 30 27 26 26 26 26 25 26 28 27 26 26 25 25 26 27 28 29 30 31 31 31 32 29 22 18 19 21 20 20 20 20 22 24 25 25 26 26 26 26 25 24 26 26 26 25 26 26 27 26 26 27 28 28 29 30 30 31 33 34 36 38 41 44 45 50 53 48 42 46 47 45 43 42 42 41 36 32 29 28 33 37 37
Wind_Direction
256 257 262 266 270 265 269 275 277 279 278 287 293 295 298 297 297 294 294 295 293 290 287 287 285 282 283 284 284 283 284 286 283 277 273 272 269 271 276 288 296 290 280 276 273 262 254 252 248 248 247 242 238 237 237 238 235 232 235 237 236 233 232 234 235 234 232 229 226 226 229 228 226 225 227 229 229 230 230 231 235 235 236 239 244
251 252 257 260 262 261 267 271 270 273 273 281 287 290 292 289 287 289 294 297 295 291 288 290 291 289 286 285 283 279 277 279 280 278 272 268 267 267 269 277 285 283 280 280 282 275 259 251 251 248 244 243 242 239 238 240 240 237 236 237 239 239 235 235 236 237 236 234 231 229 228 229 230 229 228 230 232 233 232 233 236 237 237 240 244
247 250 253 255 258 260 263 268 272 272 273 277 277 281 290 289 285 288 293 292 292 292 290 293 296 294 290 288 286 282 279 276 277 277 273 269 268 267 266 266 272 282 285 283 288 291 275 257 256 254 247 244 245 243 240 239 239 239 240 239 239 241 240 238 238 240 240 239 236 234 232 230 231 232 232 231 233 236 234 233 236 238 239 241 245
248 252 254 255 255 257 259 265 273 271 272 277 281 286 291 292 295 301 301 295 293 291 291 294 294 292 289 288 287 285 281 277 276 276 273 270 267 267 263 259 262 274 286 289 291 293 285 270 265 263 257 252 249 249 246 244 243 239 240 243 241 241 242 242 240 241 243 244 243 239 237 235 233 233 234 235 234 236 236 234 235 237 239 241 244
250 252 254 259 260 264 266 265 265 266 273 277 283 290 291 295 302 306 305 302 302 301 299 296 291 289 288 289 289 286 283 278 275 273 272 269 266 264 261 259 261 266 276 283 285 287 287 282 278 271 265 261 255 252 250 250 250 246 244 246 245 244 245 245 243 243 243 246 248 247 243 241 239 236 235 237 237 237 237 236 236 236 238 241 243
252 257 260 266 267 267 265 261 260 267 279 281 281 290 300 307 307 306 306 307 310 310 306 299 293 291 290 292 292 288 285 282 278 273 270 267 266 264 262 263 265 269 271 273 276 280 283 285 286 283 278 273 265 259 255 254 255 253 250 248 246 245 247 249 248 247 245 246 248 250 250 247 244 241 239 239 239 239 238 236 237 238 239 242 245
258 262 263 267 269 269 266 264 266 274 285 286 285 295 305 309 307 307 307 306 306 304 303 303 303 300 294 292 290 287 286 285 283 278 273 269 267 267 267 268 269 271 270 268 269 272 279 283 285 287 284 278 272 266 261 256 256 256 256 254 252 250 249 251 253 252 250 248 249 249 251 252 250 247 244 242 241 240 239 238 239 240 241 242 245
265 261 260 266 272 276 273 272 279 285 288 288 291 298 302 304 305 306 304 303 301 299 300 301 302 301 296 294 290 287 287 287 286 283 280 276 274 272 271 272 271 271 268 263 262 265 273 279 280 279 276 273 272 268 262 257 257 257 257 257 259 258 256 252 252 256 256 253 252 251 250 251 253 252 249 246 245 243 240 240 242 242 242 243 246
264 260 261 267 275 278 277 280 286 288 288 291 296 298 298 300 302 304 301 298 297 296 298 297 295 294 294 296 295 292 289 288 288 285 282 280 278 276 273 272 271 271 268 261 259 259 261 269 275 274 272 273 272 269 265 264 264 263 260 259 260 260 261 259 253 253 257 257 256 254 252 250 251 253 253 251 248 247 246 244 244 245 244 244 246
263 262 265 270 274 276 278 283 287 286 288 292 293 294 298 300 301 302 298 296 295 296 298 297 294 290 289 292 296 296 292 289 289 287 284 281 279 277 273 271 270 270 270 264 260 259 258 261 268 272 272 271 270 271 270 271 275 274 269 264 260 257 258 263 261 254 253 255 256 256 255 253 252 252 254 254 251 250 250 249 248 247 246 246 247
264 266 268 269 271 274 280 284 287 287 286 285 287 294 300 302 301 300 298 296 296 296 296 296 294 289 287 290 292 291 290 289 287 285 287 289 287 282 277 271 269 268 269 271 270 267 266 264 265 267 269 268 269 270 270 273 275 274 270 262 259 259 259 261 263 260 254 253 254 255 255 255 255 253 253 255 255 252 251 251 250 249 248 248 250
264 266 265 266 270 275 280 285 288 286 283 286 293 298 300 300 300 300 297 293 293 295 295 296 295 292 291 293 293 290 289 289 287 288 292 297 297 293 285 276 271 269 269 273 277 276 274 272 269 268 268 269 268 268 269 270 268 267 266 261 258 263 264 262 263 262 259 257 256 256 255 255 255 254 254 254 255 255 253 252 251 250 250 249 251
264 267 268 273 276 280 284 286 286 284 287 293 297 299 299 299 299 298 298 295 295 294 295 299 301 300 295 291 295 295 292 292 288 288 292 296 299 300 293 282 274 272 272 273 276 279 280 280 279 277 275 274 272 269 268 267 265 265 265 263 264 267 265 264 263 261 259 259 258 258 258 256 254 253 253 254 255 255 254 253 252 252 251 251 252
268 273 277 282 284 288 293 293 291 291 294 298 300 300 299 301 303 303 304 302 301 300 303 307 309 314 312 307 308 302 296 295 287 288 298 299 300 301 300 295 286 280 280 281 282 283 285 285 285 286 285 282 280 277 273 269 264 263 262 262 265 267 265 265 265 261 258 256 255 256 257 256 256 255 253 253 254 255 255 255 254 253 252 253 254
273 278 282 286 290 293 295 295 295 299 302 303 304 302 300 303 305 308 307 307 309 310 314 315 315 323 326 325 324 321 312 293 290 310 306 301 307 313 316 316 312 306 301 297 295 293 291 290 290 290 290 287 286 284 282 277 268 263 261 263 265 265 267 268 267 264 261 258 255 253 253 254 256 257 257 255 254 254 255 256 256 255 255 254 254
274 278 281 283 287 289 290 291 294 300 301 298 298 296 296 299 303 307 309 313 317 317 320 321 322 327 332 330 326 330 340 321 322 325 310 304 321 323 322 323 321 320 318 313 309 307 304 302 300 298 297 293 289 286 285 283 276 267 262 263 265 266 267 268 267 267 266 264 259 255 253 253 253 255 257 257 256 255 255 257 257 257 258 257 256
271 273 275 280 283 286 288 289 294 299 296 294 294 294 297 301 305 311 313 317 319 320 324 326 327 329 329 329 326 330 330 325 330 336 323 317 320 321 324 325 326 325 323 320 317 314 311 309 306 303 301 297 293 290 286 283 279 272 266 264 265 266 267 267 268 269 269 267 263 261 259 256 254 254 254 256 258 257 256 257 257 257 258 258 258
266 267 273 281 284 286 287 288 295 296 292 297 299 299 303 306 310 315 316 318 320 324 329 331 330 326 322 322 317 311 315 322 328 327 321 323 329 335 333 332 330 328 326 326 325 323 319 316 310 306 302 299 297 294 291 287 282 277 271 268 266 267 267 268 268 268 267 265 262 263 264 260 257 255 254 255 257 257 256 255 256 258 259 259 259
264 268 274 280 281 283 284 288 295 292 287 294 299 301 303 306 308 310 314 321 325 327 330 331 327 322 321 318 311 304 308 316 319 321 325 329 344 345 339 347 345 334 338 343 342 342 336 329 321 313 307 303 302 299 296 292 288 284 279 275 271 269 267 267 268 266 265 263 261 260 261 259 258 257 256 254 254 255 255 255 254 256 258 260 260
268 272 275 276 277 280 282 287 290 284 283 291 298 302 301 301 301 305 315 320 323 324 324 324 320 321 321 317 313 308 309 311 312 318 318 321 338 352 349 9 20 351 355 359 357 359 356 350 344 336 325 315 310 306 303 298 292 288 284 281 278 273 270 268 268 267 265 263 260 258 257 256 257 256 255 254 253 253 255 255 254 254 255 258 260
272 274 273 272 274 277 279 281 278 274 283 296 305 308 307 305 302 305 310 310 313 316 316 318 318 320 321 318 318 315 315 315 313 317 313 315 330 347 346 354 38 7 3 6 6 8 12 13 14 13 8 357 341 327 317 309 301 294 288 285 282 278 274 271 268 266 265 263 259 256 255 255 255 253 251 251 252 253 256 256 254 253 253 254 257
273 271 270 270 271 272 272 270 268 273 288 300 307 313 311 306 302 300 299 300 307 312 316 321 322 324 325 322 323 323 321 319 315 317 317 313 319 332 337 330 330 347 356 1 5 8 13 17 20 23 24 22 17 7 354 339 323 310 299 292 287 284 280 276 271 267 264 261 258 255 254 255 255 253 250 249 248 251 255 256 254 252 251 251 252
267 264 264 264 263 262 260 257 261 272 286 295 300 305 302 295 290 286 287 294 301 309 317 321 321 324 323 321 323 326 322 318 318 317 315 311 310 318 322 317 317 327 336 345 352 355 360 3 5 8 12 14 15 15 11 4 352 337 322 307 296 289 285 281 276 270 265 261 257 255 253 253 254 253 251 250 249 249 249 251 253 251 250 250 249
255 254 256 257 256 251 247 248 254 263 272 280 288 292 288 281 277 275 279 287 294 303 309 311 313 314 312 314 318 321 317 312 313 313 310 304 302 309 312 309 311 315 321 327 331 335 341 348 351 352 354 357 359 2 4 2 357 349 340 330 316 301 290 284 279 274 268 263 260 257 254 252 252 251 249 249 249 248 246 247 250 252 251 250 248
249 251 254 257 256 248 242 243 247 253 259 267 277 281 278 273 270 271 275 281 287 294 298 301 304 302 301 305 308 312 310 306 305 304 304 301 299 303 304 303 306 310 314 315 316 318 321 330 340 344 345 346 346 349 351 352 352 349 345 340 334 322 307 292 282 276 271 266 262 259 257 254 252 250 249 248 248 248 247 246 247 249 250 250 248
249 253 256 258 255 247 242 242 243 248 252 258 267 271 271 269 267 268 271 274 279 285 290 294 297 297 297 299 301 305 305 302 301 298 297 297 298 300 299 299 301 304 308 309 311 313 313 318 326 334 338 340 340 340 341 343 344 345 345 341 338 333 324 310 292 280 274 269 265 261 259 257 255 252 251 250 250 249 248 246 246 246 246 248 247
247 250 251 252 251 244 238 237 239 244 250 256 260 263 266 265 264 265 266 269 272 276 281 285 289 292 294 295 296 299 301 299 297 295 293 291 293 294 295 298 300 302 304 305 307 309 311 314 316 323 332 335 337 336 334 336 338 339 341 341 339 336 330 322 308 291 278 271 267 263 260 257 256 254 253 251 251 250 249 248 246 243 242 244 246
242 244 245 246 243 236 232 233 237 242 248 253 257 259 262 262 262 264 265 266 268 269 273 277 281 286 289 291 292 293 294 293 293 293 291 289 289 288 289 294 298 302 304 305 306 308 312 315 316 319 327 332 333 332 330 331 333 335 339 340 340 338 334 327 317 304 288 276 269 265 262 259 257 256 254 253 251 250 250 249 247 244 240 241 244
236 239 241 241 236 229 229 231 236 243 248 251 254 256 260 262 264 266 266 266 267 267 268 271 275 280 284 287 289 290 290 291 293 294 293 292 290 287 286 288 293 297 300 301 303 306 310 314 315 316 322 327 329 328 328 328 330 333 336 340 341 341 338 332 323 312 298 285 275 268 264 261 258 256 255 254 252 251 250 249 248 246 244 242 241
232 234 236 235 231 225 222 225 233 240 243 244 247 249 256 263 266 268 268 266 268 269 268 270 272 275 280 284 286 288 290 291 293 294 295 294 292 288 284 283 286 291 296 299 300 301 306 311 312 313 316 320 324 325 325 326 327 330 334 338 341 342 340 335 328 318 307 297 286 276 268 263 259 257 256 255 254 252 250 249 248 247 246 245 243
229 229 231 231 225 217 214 218 223 223 223 225 232 242 257 270 277 281 278 272 270 270 269 271 273 275 278 281 283 286 287 288 289 290 292 293 293 291 286 283 284 286 290 294 295 297 302 307 308 310 313 315 319 322 323 323 324 327 332 337 340 342 341 337 332 324 315 307 299 289 277 267 260 256 254 254 253 252 251 249 248 247 246 245 244
229 228 229 227 219 213 214 216 212 212 219 227 236 248 259 269 279 287 288 283 279 277 272 270 271 274 277 278 280 283 285 285 286 287 288 288 289 290 288 286 285 286 288 289 291 294 299 303 305 308 310 312 314 319 321 320 320 322 329 335 338 340 342 341 337 331 322 314 309 303 291 276 263 255 253 252 252 251 250 249 248 246 246 245 243
229 228 230 224 215 214 218 218 217 221 229 235 243 253 262 267 271 278 284 289 293 293 283 273 269 272 275 277 279 283 286 288 289 288 287 286 286 286 287 287 286 287 288 289 291 295 298 302 304 306 308 309 311 316 319 318 316 318 323 330 334 336 340 342 341 339 332 322 314 310 304 291 272 258 252 250 250 250 249 248 247 246 245 245 244
231 231 230 222 217 220 223 225 227 232 237 243 249 256 264 268 271 275 280 285 291 296 292 281 273 271 272 275 278 283 287 288 289 289 288 287 284 283 284 285 286 286 287 289 291 294 297 301 303 303 305 307 308 313 317 316 314 315 318 325 329 331 334 337 339 341 340 334 323 314 310 303 288 269 255 249 248 248 247 247 247 247 246 244 244
234 233 228 223 223 226 228 231 234 240 247 252 254 257 263 268 272 275 278 280 283 289 293 289 280 273 272 274 278 283 285 285 287 288 289 288 286 284 284 283 284 285 285 288 290 293 295 298 300 301 303 305 306 310 314 313 312 312 314 320 324 325 328 332 334 336 339 339 333 322 313 306 298 283 265 253 248 246 246 246 246 247 247 245 243
235 233 228 226 228 231 234 238 243 250 256 259 260 261 263 267 272 276 278 278 278 283 289 290 284 276 272 274 278 281 283 285 288 290 291 292 291 288 286 285 284 284 285 285 287 290 293 295 297 299 301 302 304 308 312 311 309 308 309 315 320 321 323 327 330 332 334 336 336 330 319 309 302 292 275 261 252 247 245 245 245 246 247 247 244
232 232 230 229 233 238 243 249 253 258 263 265 265 266 268 271 274 277 277 275 274 278 282 283 280 275 272 274 278 281 284 288 290 292 293 295 295 292 289 287 285 283 283 283 285 289 291 293 295 298 299 299 301 306 310 311 309 306 307 311 315 317 320 323 326 329 331 333 335 334 326 315 305 297 283 268 257 251 246 244 244 245 246 247 245
231 231 233 235 240 246 251 255 258 262 266 269 270 272 275 275 275 276 276 274 273 274 276 276 274 273 272 274 277 280 285 291 293 293 294 296 296 295 292 290 287 285 286 287 289 291 292 293 294 296 298 299 301 305 309 310 308 306 306 308 311 315 319 321 323 326 329 331 333 334 331 322 311 302 290 274 262 256 250 245 243 243 244 246 245
232 232 233 238 245 251 255 257 259 264 268 270 273 275 277 277 277 279 280 278 275 274 273 271 270 271 272 273 276 279 286 293 295 296 296 296 296 296 295 293 290 289 291 293 294 294 293 294 294 296 298 300 301 304 308 310 307 305 306 307 310 313 316 318 321 324 327 330 331 331 330 327 319 308 297 281 265 258 254 248 243 241 242 243 243
227 222 222 233 243 249 253 255 259 265 268 270 274 276 277 279 280 283 284 281 278 275 271 269 268 269 270 271 274 279 285 291 294 296 296 296 297 297 297 296 294 293 295 296 297 296 296 296 297 298 299 300 301 305 308 311 310 309 308 306 308 311 313 315 318 322 327 330 331 330 328 328 323 314 303 289 272 259 255 252 245 241 240 240 240
220 216 218 230 239 244 250 255 260 265 268 271 276 278 278 280 281 283 284 281 278 274 270 269 268 267 269 272 276 281 284 286 289 292 295 296 296 296 297 296 294 295 296 298 300 300 299 298 298 300 300 300 302 306 309 312 312 311 309 306 305 307 310 313 315 320 327 329 329 328 326 325 321 315 307 295 281 266 256 252 247 241 238 238 238
216 217 222 229 235 241 248 254 260 264 268 271 275 277 277 277 277 277 277 276 273 270 267 265 265 266 270 275 280 283 283 282 283 287 292 294 294 294 295 294 293 294 296 299 301 301 300 298 298 300 299 299 303 306 308 310 312 311 309 306 305 306 309 312 313 319 327 328 326 323 323 323 319 313 307 297 287 275 260 252 249 243 238 237 237
220 222 227 231 235 241 247 254 260 264 268 271 272 274 273 271 271 271 272 272 268 264 262 261 264 269 274 279 283 284 282 280 281 284 288 292 292 291 291 290 290 291 293 296 298 300 299 298 298 298 296 297 302 306 307 309 311 310 308 306 305 306 309 311 312 317 324 326 323 319 319 321 320 313 307 299 289 281 267 253 248 244 239 236 235
224 228 231 234 237 242 246 253 260 264 269 272 271 271 270 267 265 266 269 269 265 263 262 262 266 271 276 281 285 286 284 280 279 281 285 289 292 291 288 287 287 288 289 291 294 297 297 296 295 294 295 297 301 304 306 309 310 309 306 304 304 305 306 307 308 312 318 321 320 316 315 318 319 313 306 300 292 284 274 258 248 243 239 235 234
227 232 235 238 241 243 247 253 260 266 271 273 272 269 268 264 261 260 263 264 264 264 264 265 267 270 274 280 285 288 286 281 277 280 284 288 292 291 288 285 284 286 287 288 290 293 294 293 292 293 296 298 299 301 306 308 307 306 304 303 303 302 302 304 305 308 313 316 316 315 312 314 318 313 305 300 294 287 279 264 250 243 239 236 233
230 234 239 242 244 246 250 255 261 268 272 273 273 270 268 264 259 258 259 260 262 264 265 266 268 271 274 279 285 289 288 282 278 279 282 287 290 289 288 286 285 285 285 285 288 292 293 292 291 293 297 298 296 299 304 306 304 303 303 301 300 299 299 302 303 305 308 311 315 313 308 311 317 313 304 301 296 289 282 269 254 244 239 236 233
232 238 243 247 250 252 256 260 264 270 273 275 274 271 269 266 260 257 258 259 260 261 264 267 268 271 274 278 283 288 288 283 279 278 281 285 287 289 289 288 287 287 286 287 289 292 294 294 293 295 298 298 297 298 302 303 303 303 302 298 295 295 298 301 303 303 305 309 315 310 303 308 315 310 303 303 298 289 282 273 259 245 238 235 232
237 243 247 250 253 256 260 263 267 272 276 277 275 273 273 271 266 263 263 263 262 261 262 265 268 272 274 274 279 286 287 283 277 275 279 283 287 290 291 290 289 288 287 288 290 292 294 295 295 297 299 299 298 298 300 301 302 303 302 296 293 295 300 305 305 305 306 309 313 309 301 303 309 307 302 302 298 291 283 274 263 248 238 234 231
242 246 250 253 257 261 264 267 270 274 278 280 279 277 276 275 273 272 270 268 268 267 266 266 269 272 270 267 274 284 286 282 277 274 277 283 289 292 292 291 289 287 287 289 290 291 293 295 296 298 300 300 298 297 297 298 300 303 299 294 294 298 303 306 306 307 308 308 311 312 303 299 304 305 301 300 297 291 283 275 267 252 239 233 230
245 248 252 257 262 265 268 272 276 278 279 279 280 280 279 277 276 275 275 274 272 271 271 271 269 268 263 259 270 281 281 278 275 275 279 285 290 293 293 292 288 287 290 291 290 292 295 296 298 301 303 302 300 299 299 299 302 305 299 294 296 298 301 305 306 309 309 308 312 314 305 298 301 302 300 298 293 289 283 277 269 255 241 233 229
250 251 255 261 267 270 272 276 280 280 281 282 283 282 282 281 279 278 278 277 276 276 276 273 271 270 266 266 274 277 274 273 273 276 283 289 292 294 294 291 289 290 292 292 291 294 298 300 303 307 308 307 305 304 304 303 305 307 303 299 297 297 299 303 307 310 309 308 313 315 305 299 299 298 296 293 287 284 283 277 270 258 243 234 228